Results By Division


Marshman® Triathlon Presented by Kinetic PT

Race Date: Sunday September 18, 2011
Description: 1/4 Mile Swim~12.5 Mile Bike~2 Mile Run
Race Category: Sprint Triathlon
# Entrants in Division: 39

Choose:
 Division
Place
Overall
Place
NameCityStateRace AgeGenderDivisionTimeBib#
View 1 2 Jones, Rob "smarty" West Chester PA 43 M 40-44 0:55:48 104
View 2 13 Howe, Christopher West Chester PA 44 M 40-44 1:00:47 126
View 3 15 Schweidler, Olaf West Chester PA 44 M 40-44 1:01:08 105
View 4 21 Kreger, Bryan Pottstown PA 43 M 40-44 1:02:07 116
View 5 22 Siegel, Jeffrey West Chester PA 44 M 40-44 1:02:28 115
View 6 38 Gabb, Jonathan Phoenixville PA 40 M 40-44 1:05:09 123
View 7 41 Langan, Mark West Chester PA 42 M 40-44 1:05:26 121
View 8 47 Fungairino, Antonio Downingtown PA 41 M 40-44 1:06:08 108
View 9 57 Andrews, Jeff Phoenixville PA 41 M 40-44 1:07:29 124
View 10 58 Nutter, Christopher Dover DE 42 M 40-44 1:07:43 103
View 11 65 Britton, Doug Norristown PA 42 M 40-44 1:08:45 455
View 12 68 Christ, Bryan Pottstown PA 42 M 40-44 1:08:55 136
View 13 69 Heintzelman, Matthew Wayne PA 43 M 40-44 1:09:03 453
View 14 75 Parsley, Edward Philadelphia PA 44 M 40-44 1:10:15 144
View 15 76 Hontz, Keith West Chester PA 43 M 40-44 1:10:43 454
View 16 77 Kalucki, Tom Chester Springs PA 41 M 40-44 1:10:50 102
View 17 91 Sheeder, James Ligonier PA 41 M 40-44 1:12:09 117
View 18 93 Thir, Jonathan Glenmoore PA 43 M 40-44 1:12:11 135
View 19 95 O'sullivan, Sean Collegeville PA 41 M 40-44 1:12:15 127
View 20 99 Schanck, Mark Glenmoore PA 42 M 40-44 1:12:48 137
View 21 101 Goodstein, Daniel Downingtown PA 44 M 40-44 1:12:58 139
View 22 109 Mackrell, Kevin Exton PA 40 M 40-44 1:14:11 128
View 23 115 Hellgoth, John Downingtown PA 43 M 40-44 1:14:53 131
View 24 126 Herczeg, Pete Oreland PA 40 M 40-44 1:15:27 143
View 25 127 Lebuhn, Bruce Rose Valley PA 43 M 40-44 1:15:29 142
View 26 130 Davidson, Joshua Downingtown PA 42 M 40-44 1:15:55 111
View 27 132 Fisher, Todd Westampton NJ 41 M 40-44 1:16:14 122
View 28 181 Brereton, Stuart Maple Glen PA 40 M 40-44 1:20:36 130
View 29 189 Rigsbee, Jim Wallingford PA 42 M 40-44 1:21:22 132
View 30 215 Everitt, Richard Bethesda MD 40 M 40-44 1:22:52 119
View 31 232 Laws, Andrew West Chester PA 40 M 40-44 1:24:10 140
View 32 234 Incollingo, Mario Glenmoore PA 42 M 40-44 1:24:11 134
View 33 243 Keefe, John West Chester PA 42 M 40-44 1:25:16 118
View 34 271 Murphy, Daniel West Chester PA 40 M 40-44 1:28:47 141
View 35 302 Sanfelice, Paul King Of Prussia PA 44 M 40-44 1:32:21 133
View 36 327 Mckenna, Peter Wayne PA 42 M 40-44 1:35:31 120
View 37 334 Morello, Sal Collegeville PA 41 M 40-44 1:35:58 138
View 38 361 Espenshade, Mike Malvern PA 41 M 40-44 1:43:01 114
View 39 372 Rodriguez, Todd Downingtown PA 42 M 40-44 1:46:16 110